* Astronomy

Members Login
Post Info TOPIC: Asteroid 2010 EN65, 2010 EQ65, 2010 ET65


L

Posts: 131433
Date:
Trans-Neptunian object 316179 (2010 EN65)
Permalink  
 


Trans-Neptunian object 316179 (2010 EN65) is at Opposition (25.620 AU) on the 25th March 2018



__________________


L

Posts: 131433
Date:
Asteroid 2010 ET65
Permalink  
 


Orbital elements:
2010 ET65
Epoch 2011 Feb. 8.0 TT = JDT 2455600.5 MPC
M 358.11800 (2000.0) P Q
n 0.00202376 Peri. 354.00699 -0.99564747 +0.03901915
a 61.9009272 Node 189.55317 -0.04899987 -0.99165443
e 0.3599714 Incl. 30.66270 -0.07927879 +0.12287797
P 487 H 5.2 G 0.15 U 4

MPEC 2011 - D48


__________________


L

Posts: 131433
Date:
Asteroid 2010 EN65
Permalink  
 


Orbital elements:
2010 EN65
Epoch 2010 July 23.0 TT = JDT 2455400.5 MPC
M 32.73717 (2000.0) P Q
n 0.00583728 Peri. 224.74488 -0.12565630 -0.95527393
a 30.5489194 Node 234.32272 +0.97725346 -0.07272058
e 0.3115788 Incl. 19.24144 +0.17083958 -0.28664166
P 168.85 H 6.9 G 0.15 U 1

MPEC 2010 - J33


__________________


L

Posts: 131433
Date:
Asteroid 2010 EN65, 2010 EQ65, 2010 ET65
Permalink  
 


Orbital elements:
Object H G Epoch M Peri. Node Incl. e a Arc C
K10E65N 7.0 0.15 K103P 26.010 242.588 234.429 19.232 0.22666 29.30510 44 M
K10E65Q 6.4 0.15 K103P 352.510 239.422 336.179 23.632 0.57950 81.29076 41 M
K10E65T 5.2 0.15 K103P 7.351 332.897 189.317 31.252 0.33473 59.31364 38 M

MPEC 2010 - H44


__________________
Page 1 of 1  sorted by
 
Quick Reply

Please log in to post quick replies.



Create your own FREE Forum
Report Abuse
Powered by ActiveBoard